Regional Weather Roundup
Issued by NWS

Home | Current Version | Previous Version | Text Only | Print | Product List | Glossary Off
Versions: 1 2 3 4 5 6 7 8 9 10 11 12 13 14 15 16 17 18 19 20 21 22 23 24 25 26 27 28 29 30 31 32 33 34 35 36 37 38 39 40 41 42 43 44 45 46 47 48 49 50

000
ASUS43 KLOT 181421
RWRIL

ILLINOIS REGIONAL WEATHER ROUNDUP
NATIONAL WEATHER SERVICE CHICAGO/ROMEOVILLE IL
900 AM CDT SAT APR 18 2015

NOTE: "FAIR" INDICATES FEW OR NO CLOUDS BELOW 12,000 FEET WITH NO
SIGNIFICANT WEATHER AND/OR OBSTRUCTIONS TO VISIBILITY.

* THESE STATIONS ARE NOT UNDER NWS QUALITY CONTROL. THEY ALSO MAY NOT
  REPORT WEATHER SUCH AS PRECIPITATION OR FOG.

ILZ001-002-007-009-015-016-024-181500-
NORTHWEST ILLINOIS

CITY           SKY/WX    TMP DP  RH WIND       PRES   REMARKS
MOLINE         PTSUNNY   60  50  69 E7        30.01S
STERLING*      MOSUNNY   70  54  56 E10       30.03R
SAVANNA*       SUNNY     68  46  44 E10       30.02S
$$

ILZ003-004-008-010-011-017-018-181500-
NORTH CENTRAL ILLINOIS

CITY           SKY/WX    TMP DP  RH WIND       PRES   REMARKS
ROCKFORD       PTSUNNY   67  44  43 E15G25    30.06S
FREEPORT*      PTSUNNY   61  47  60 E7        30.06S
ROCHELLE*      SUNNY     69  48  47 NE12      30.04S
DE KALB*       MOSUNNY   66  44  45 E16G22    30.05S
PERU*          MOSUNNY   65  53  67 CALM      30.04S
$$

ILZ005-006-012>014-019>023-181500-
NORTHEAST ILLINOIS

CITY           SKY/WX    TMP DP  RH WIND       PRES   REMARKS
CHICAGO-OHARE  MOSUNNY   57  40  52 NE21G28   30.07R
CHICAGO-MIDWAY MOSUNNY   64  44  48 NE21      30.05R
AURORA         MOSUNNY   68  49  50 NE15      30.04S
LANSING*       MOSUNNY   66  47  51 CALM      30.05R
JOLIET*        MOSUNNY   67  54  64 CALM      30.04S
WAUKEGAN       SUNNY     51  38  60 N20G32    30.08R
DUPAGE AIRPORT MOSUNNY   65  45  48 NE15G24   30.04S
KANKAKEE*      PTSUNNY   66  55  68 CALM      30.05R
WHEELING       SUNNY     54  39  57 NE14G23   30.10R
MORRIS*        MOSUNNY   66  53  62 CALM      30.02R
ROMEOVILLE*    MOSUNNY   67  49  52 E10       30.05R
NORTHERLY ISL    N/A     54  43  66 MISG        N/A
$$

LMZ740>746-181500-
SOUTHERN LAKE MICHIGAN

STATION/POSITION SKY/WX   TEMP    WIND        PRES    VSBY  WAVE
                          AIR SEA DIR/SP/G                  HT/PER
                          (F)     (DEG/KT/KT) (MB)    (MI)  (FT/S)
HARRISON CRIB                     350/ 17/ 20   N/A
BURNHAM HARBOR             53      10/ 14/ 21   N/A
CALUMET HARBOR             64     330/  9/ 13   N/A
BURNS HARBOR               60     240/  3/  4 1017.9R
MICHIGAN CITY              53     350/ 13/ 15   N/A
MICHIGAN CITY 6N           50 47                N/A           0
$$

ILZ025>027-034>036-040-047-049-050-058-095>099-181500-
WEST-CENTRAL ILLINOIS

CITY           SKY/WX    TMP DP  RH WIND       PRES   REMARKS
QUINCY         CLOUDY    66  58  75 SE6       29.99S
GALESBURG*     PTSUNNY   66  56  70 CALM      30.02R
MACOMB*        CLOUDY    66  56  69 S6        30.03S
JACKSONVILLE*  CLOUDY    66  59  77 E3        29.99F
PITTSFIELD*    CLOUDY    65  58  78 SE5       30.00F
$$

ILZ028>032-037-038-041>044-048-051>054-059>061-181500-
CENTRAL ILLINOIS

CITY           SKY/WX    TMP DP  RH WIND       PRES   REMARKS
PONTIAC        MOSUNNY   68  56  67 S5        30.04S
BLOOMINGTON    PTSUNNY   66  58  75 S5        30.05S
DECATUR        CLOUDY    66  54  65 SE5       30.03F
PEORIA         PTSUNNY   69  56  62 CALM      30.02S
LACON*         PTSUNNY   66  55  68 CALM      30.02S
LINCOLN*       CLOUDY    66  56  70 CALM      30.01F
SPRINGFIELD    CLOUDY    65  57  75 CALM      30.02S
TAYLORVILLE    CLOUDY    63  55  77 E3        30.01F
$$

ILZ033-039-045-046-055>057-062-063-181500-
EAST-CENTRAL ILLINOIS

CITY           SKY/WX    TMP DP  RH WIND       PRES   REMARKS
CHAMPAIGN      PTSUNNY   67  50  54 SE6       30.04S
DANVILLE*      MOSUNNY   64  52  64 CALM      30.03S
RANTOUL*       MOSUNNY   68  52  56 S6        30.05R
MATTOON        CLOUDY    64  51  62 CALM      30.03S
PARIS*         CLOUDY    63  53  71 CALM      30.05S
$$

ILZ079-100>102-181500-
SOUTHWEST ILLINOIS

CITY           SKY/WX    TMP DP  RH WIND       PRES   REMARKS
ALTON          CLOUDY    63  59  88 E6        30.00F FOG
BELLEVILLE     CLOUDY    64  64  99 SE6       29.99F
CAHOKIA*       CLOUDY    66  60  81 SE5       29.99F
SPARTA*        MOSUNNY   65  62  89 E3        30.00F
$$

ILZ064>066-069>071-074>076-080>082-084>086-088>090-092>094-181500-
SOUTH-CENTRAL ILLINOIS

CITY           SKY/WX    TMP DP  RH WIND       PRES   REMARKS
CARBONDALE     SUNNY     65  60  84 E3        29.99F
CAIRO*         CLOUDY    65  65 100 E5        30.00R FOG
EFFINGHAM*     CLOUDY    64  51  63 E3        30.03F
MARION         MOSUNNY   66  63  88 E5        30.01F
MT. VERNON     PTSUNNY   70  61  73 CALM      30.01F
CENTRALIA*     PTSUNNY   69  58  69 E3        30.00F
SALEM*         CLOUDY    66  58  74 E3        30.01F
METROPOLIS*    CLOUDY    65  65 100 CALM      30.00R FOG
$$

ILZ067-068-072-073-078-083-087-091-181500-
SOUTHEAST ILLINOIS

CITY           SKY/WX    TMP DP  RH WIND       PRES   REMARKS
LAWRENCEVILLE  CLOUDY    60  57  89 CALM      30.03S
FLORA*         CLOUDY    60  58  91 CALM      30.02S FOG
FAIRFIELD*     PTSUNNY   65  60  83 CALM      30.00F HAZE
HARRISBURG*    SUNNY     67  64  90 CALM      30.02S
ROBINSON*      CLOUDY    61  56  82 NE3       30.05R
CARMI*         MOSUNNY   62  59  89 NE3       30.01F FOG
$$

ABBREVIATIONS USED IN REMARKS
   TC - TEMPERATURE IN CELSIUS
  WCI - WIND CHILL INDEX
   HX - HEAT INDEX
  VSB - VISIBILITY
$$




USA.gov is the U.S. government's official web portal to all federal, state and local government web resources and services.